1276387234421,88.6385
1276387294421,88.7156
1276387354421,88.8183
1276387414421,88.9138
1276387474421,88.5905
1276387534421,88.7544
1276387594421,89.2010
1276387654421,88.1275
1276387714421,88.8564
1276387774421,89.5462
1276387834421,88.9144
1276387894421,88.1631
1276387954421,88.8258
1276388014421,89.0407
1276388074421,88.7972
1276388134421,88.5129
1276388194421,88.3058
1276388254421,88.5895
1276388314421,88.6539
1276388374421,88.6208
1276388434421,88.4421
1276388494421,88.0324
1276388554421,88.6360
1276388614421,88.5819
1276388674421,88.9042
1276388734421,88.1041
1276388794421,88.6217
1276388854421,88.7054
1276388914421,88.5001
1276388974421,88.3653
1276389034421,88.3214
1276389094421,88.2777
1276389154421,88.4025
1276389214421,88.5912
1276389274421,88.4538
1276389334421,88.4033
1276389394421,88.2005
1276389454421,88.3754
1276389514421,88.3332
1276389574421,88.4470
1276389634421,88.4242
1276389694421,88.6748
1276389754421,88.4751
1276389814421,88.2888
1276389874421,88.0911
1276389934421,88.3342
1276389994421,88.2837
1276390054421,88.3412
1276390114421,88.4669
1276390174421,88.6253
1276390234421,88.5475
1276390294421,88.3517
1276390354421,88.2692
1276390414421,88.0770
1276390474421,88.4791
1276390534421,88.1786
1276390594421,88.0609
1276390654421,88.7701
1276390714421,87.8601
1276390774421,88.2491
1276390834431,88.4754
1276390894431,88.3593
1276390954431,87.7701
1276391014431,87.9546
1276391074431,87.9561
1276391134431,88.1395
1276391194431,88.0862
1276391254431,87.2968
1276391314431,88.0583
1276391374431,87.8444
1276391434431,87.6144
1276391494431,88.0336
1276391554431,88.3219
1276391614431,87.9724
1276391674431,87.6238
1276391734431,87.9944
1276391794431,88.1276
1276391854431,87.6694
1276391914431,88.2322
1276391974431,88.0897
1276392034431,87.7547
1276392094431,88.1000
1276392154431,88.2016
1276392214431,87.5152
1276392274431,88.1740
1276392334431,88.1624
1276392394431,86.8623
1276392454431,87.8714
1276392514431,87.4625
1276392574431,87.6705
1276392634431,87.5851
1276392694431,87.6609
1276392754431,87.5555
1276392814431,87.8739
1276392874431,87.4702
1276392934431,87.4426
1276392994431,88.0641
1276393054431,88.0858
1276393114431,87.4980
1276393174431,87.4982
1276393234431,87.9424
1276393294431,87.9071
1276393354431,87.7850
1276393414431,87.5484
1276393474431,87.9269
1276393534431,87.6381
1276393594431,87.2693
1276393654431,87.5287
1276393714431,87.6285
1276393774431,87.6233
1276393834431,87.2559
1276393894431,87.4380
1276393954431,87.4820
1276394014431,87.6000
1276394074431,87.5479
1276394134431,87.6449
1276394194431,87.6160
1276394254431,87.4941
1276394314431,87.3315
1276394374431,87.3531
1276394434440,87.7094
1276394494440,87.5069
1276394554440,86.9816
1276394614440,87.0743
1276394674440,87.7607
1276394734440,87.2060
1276394794440,87.6093
1276394854440,87.1456
1276394914440,87.3119
1276394974440,87.5400
1276395034440,87.6284
1276395094440,87.3935
1276395154440,87.8334
1276395214440,87.8629
1276395274440,87.7705
1276395334440,87.8246
1276395394440,87.8490
1276395454440,87.7875
1276395514440,87.5068
1276395574440,87.6285
1276395634440,87.3029
1276395694440,86.8699
1276395754440,87.6455
1276395814440,87.0779
1276395874440,87.6064
1276395934440,87.2561
1276395994440,87.3203
1276396054440,87.3566
1276396114440,87.5809
1276396174440,87.1054
1276396234440,87.4254
1276396294440,87.3857
1276396354440,87.0459
1276396414440,87.2412
1276396474440,87.0290
1276396534440,87.3859
1276396594440,87.8407
1276396654440,87.1630
1276396714440,87.6920
1276396774440,87.4457
1276396834440,87.3449
1276396894440,87.0363
1276396954440,87.5734
1276397014440,87.3193
1276397074440,87.7981
1276397134440,87.3121
1276397194440,87.4069
1276397254440,87.7855
1276397314440,87.3729
1276397374440,87.6961
1276397434440,87.7129
1276397494440,88.1506
1276397554440,88.0935
1276397614440,87.4417
1276397674440,87.6911
1276397734440,88.0268
1276397794440,87.9927
1276397854440,88.2584
1276397914440,88.0558
1276397974440,87.7185
1276398034449,87.8345
1276398094449,88.1228
1276398154449,88.0462
1276398214449,87.4165
1276398274449,88.0566
1276398334449,87.6196
1276398394449,87.1357
1276398454449,87.3514
1276398514449,87.7567
1276398574449,87.7157
1276398634449,87.7604
1276398694449,87.2727
1276398754449,87.8982
1276398814449,87.1084
1276398874449,87.6338
1276398934449,87.7253
1276398994449,87.9935
1276399054449,87.4212
1276399114449,87.7051
1276399174449,87.6381
1276399234449,87.8019
1276399294449,87.7502
1276399354449,87.6284
1276399414449,87.3474
1276399474449,87.6236
1276399534449,87.4989
1276399594449,87.6309
1276399654449,87.5363
1276399714449,87.3461
1276399774449,87.9555
1276399834449,87.6602
1276399894449,87.7399
1276399954449,87.8664
1276400014449,87.8873
1276400074449,87.5053
1276400134449,87.3591
1276400194449,87.0472
1276400254449,87.3962
1276400314449,87.3898
1276400374449,87.4991
1276400434449,87.1502
1276400494449,87.1785
1276400554449,87.6891
1276400614449,87.3928
1276400674449,87.3070
1276400734449,87.6428
1276400794449,87.1255
1276400854449,87.1314
1276400914449,87.2488
1276400974449,87.5951
1276401034449,87.4353
1276401094449,87.2896
1276401154449,87.5188
1276401214449,87.8133
1276401274449,87.5069
1276401334449,87.3652
1276401394449,87.8882
1276401454449,87.1802
1276401514449,87.9951
1276401574449,87.8362
1276401634458,87.5616
1276401694458,87.3457
1276401754458,87.4023
1276401814458,87.1587
1276401874458,87.4666
1276401934458,87.5073
1276401994458,86.9797
1276402054458,87.1236
1276402114458,87.1413
1276402174458,87.8471
1276402234458,87.5160
1276402294458,87.2739
1276402354458,87.3491
1276402414458,87.4734
1276402474458,87.8985
1276402534458,87.5427
1276402594458,87.2407
1276402654458,87.5989
1276402714458,87.4345
1276402774458,87.8885
1276402834458,87.7354
1276402894458,87.3596
1276402954458,87.1983
1276403014458,87.9303
1276403074458,87.2651
1276403134458,87.8632
1276403194458,87.2395
1276403254458,87.4621
1276403314458,87.8069
1276403374458,87.7849
1276403434458,87.7124
1276403494458,87.5227
1276403554458,87.4277
1276403614458,87.1405
1276403674458,87.3516
1276403734458,87.5379
1276403794458,87.3936
1276403854458,87.5891
1276403914458,87.5462
1276403974458,87.6405
1276404034458,87.6105
1276404094458,87.3525
1276404154458,87.7192
1276404214458,87.7421
1276404274458,87.4068
1276404334458,87.7332
1276404394458,87.4237
1276404454458,87.3753
1276404514458,87.8203
1276404574458,87.5413
1276404634458,87.3764
1276404694458,87.0049
1276404754458,87.2237
1276404814458,87.7295
1276404874458,87.9714
1276404934458,87.2472
1276404994458,87.2887
1276405054458,87.7692
1276405114458,87.5499
1276405174458,87.5295
1276405234467,87.7251
1276405294467,87.7763
1276405354467,87.6527
1276405414467,87.7664
1276405474467,87.6884
1276405534467,87.5896
1276405594467,87.3592
1276405654467,87.3914
1276405714467,87.7373
1276405774467,87.2386
1276405834467,87.8667
1276405894467,87.8356
1276405954467,88.1659
1276406014467,87.4103
1276406074467,87.7316
1276406134467,87.6171
1276406194467,87.5175
1276406254467,87.8752
1276406314467,87.7879
1276406374467,87.6819
1276406434467,87.6063
1276406494467,88.2193
1276406554467,88.0511
1276406614467,88.2058
1276406674467,87.7345
1276406734467,88.1593
1276406794467,87.8777
1276406854467,87.8940
1276406914467,88.3489
1276406974467,88.5766
1276407034467,88.0406
1276407094467,88.3687
1276407154467,87.7327
1276407214467,88.2815
1276407274467,88.0183
1276407334467,88.1863
1276407394467,88.8107
1276407454467,88.4970
1276407514467,87.9992
1276407574467,88.4343
1276407634467,87.4788
1276407694467,87.5731
1276407754467,88.0050
1276407814467,88.1156
1276407874467,87.6034
1276407934467,88.2541
1276407994467,87.4862
1276408054467,87.5154
1276408114467,87.4334
1276408174467,87.9533
1276408234467,87.0995
1276408294467,88.0022
1276408354467,88.1030
1276408414467,87.4562
1276408474467,87.9118
1276408534467,87.7499
1276408594467,87.7604
1276408654467,87.6889
1276408714467,87.7803
1276408774467,87.7205
1276408834475,87.3223
1276408894475,87.3972
1276408954475,87.7166
1276409014475,87.5229
1276409074475,87.6813
1276409134475,87.8168
1276409194475,87.6398
1276409254475,87.4632
1276409314475,88.0362
1276409374475,87.9826
1276409434475,87.5281
1276409494475,87.8633
1276409554475,87.7211
1276409614475,87.7053
1276409674475,87.8484
1276409734475,87.8236
1276409794475,87.7492
1276409854475,87.5507
1276409914475,88.2216
1276409974475,87.6048
1276410034475,87.5944
1276410094475,87.5543
1276410154475,88.0055
1276410214475,87.5357
1276410274475,87.6656
1276410334475,87.0473
1276410394475,87.7751
1276410454475,87.8037
1276410514475,87.7799
1276410574475,87.9135
1276410634475,87.5377
1276410694475,87.5604
1276410754475,87.7451
1276410814475,87.2227
1276410874475,87.2139
1276410934475,87.7866
1276410994475,87.3612
1276411054475,88.1179
1276411114475,87.1613
1276411174475,87.0627
1276411234475,87.2712
1276411294475,87.0755
1276411354475,87.7625
1276411414475,87.8396
1276411474475,87.9767
1276411534475,87.4664
1276411594475,87.6488
1276411654475,87.3376
1276411714475,87.7662
1276411774475,87.6912
1276411834475,87.3785
1276411894475,87.3026
1276411954475,86.9548
1276412014475,87.1295
1276412074475,87.1844
1276412134475,87.2364
1276412194475,87.5989
1276412254475,87.9840
1276412314475,87.4341
1276412374475,87.6479
1276412434484,88.0148
1276412494484,87.7567
1276412554484,87.3876
1276412614484,87.7084
1276412674484,87.4455
1276412734484,87.4960
1276412794484,87.8925
1276412854484,87.7170
1276412914484,87.6691
1276412974484,87.6859
1276413034484,87.5831
1276413094484,87.8417
1276413154484,87.8188
1276413214484,87.6899
1276413274484,88.1071
1276413334484,87.9312
1276413394484,87.9200
1276413454484,87.6726
1276413514484,87.3080
1276413574484,87.5818
1276413634484,87.6539
1276413694484,87.7035
1276413754484,87.4494
1276413814484,87.2111
1276413874484,87.5073
1276413934484,87.2258
1276413994484,87.4725
1276414054484,87.9420
1276414114484,87.8219
1276414174484,87.4938
1276414234484,87.8026
1276414294484,87.8987
1276414354484,87.6624
1276414414484,87.8867
1276414474484,88.4120
1276414534484,87.7521
1276414594484,87.4612
1276414654484,87.6427
1276414714484,87.6519
1276414774484,87.6788
1276414834484,87.4785
1276414894484,87.9168
1276414954484,87.4128
1276415014484,87.0887
1276415074484,87.8340
1276415134484,87.4303
1276415194484,87.4105
1276415254484,87.2218
1276415314484,87.4298
1276415374484,87.2138
1276415434484,87.7473
1276415494484,87.3823
1276415554484,87.1634
1276415614484,87.7189
1276415674484,87.4593
1276415734484,87.4909
1276415794484,87.7460
1276415854484,87.1457
1276415914484,87.6236
1276415974484,87.3201
1276416034492,87.3156
1276416094492,87.3962
1276416154492,87.0359
1276416214492,87.5677
1276416274492,86.7021
1276416334492,87.5501
1276416394492,87.4951
1276416454492,86.9008
1276416514492,87.3483
1276416574492,87.5559
1276416634492,87.8680
1276416694492,87.5425
1276416754492,87.3151
1276416814492,87.4050
1276416874492,87.2732
1276416934492,87.3317
1276416994492,87.0677
1276417054492,86.9389
1276417114492,87.2575
1276417174492,87.0797
1276417234492,86.7774
1276417294492,86.9961
1276417354492,87.6641
1276417414492,87.1765
1276417474492,86.7800
1276417534492,87.1537
1276417594492,86.9918
1276417654492,86.6377
1276417714492,87.0877
1276417774492,86.6681
1276417834492,87.0335
1276417894492,86.8066
1276417954492,87.1181
1276418014492,86.4677
1276418074492,86.6669
1276418134492,87.3054
1276418194492,87.1992
1276418254492,86.2342
1276418314492,86.8208
1276418374492,87.4899
1276418434492,85.9201
1276418494492,86.6010
1276418554492,86.5084
1276418614492,86.4030
1276418674492,86.9451
1276418734492,86.9858
1276418794492,86.5605
1276418854492,86.2958
1276418914492,86.9179
1276418974492,86.3304
1276419034492,86.6126
1276419094492,86.6948
1276419154492,86.4954
1276419214492,86.5299
1276419274492,86.3620
1276419334492,86.7700
1276419394492,86.9225
1276419454492,86.8616
1276419514492,86.7100
1276419574492,86.6489
1276419634501,86.9300
1276419694501,86.9278
1276419754501,86.8257
1276419814501,86.7336
1276419874501,86.7180
1276419934501,86.8758
1276419994501,86.7440
1276420054501,87.0083
1276420114501,86.8366
1276420174501,86.8023
1276420234501,87.0419
1276420294501,87.6119
1276420354501,86.7200
1276420414501,86.9645
1276420474501,86.9318
1276420534501,86.7814
1276420594501,86.5206
1276420654501,86.5960
1276420714501,87.0797
1276420774501,86.9352
1276420834501,86.5876
1276420894501,86.9374
1276420954501,87.1264
1276421014501,87.0461
1276421074501,87.1585
1276421134501,86.8323
1276421194501,86.6349
1276421254501,87.0009
1276421314501,86.9242
1276421374501,86.8267
1276421434501,86.7050
1276421494501,86.8105
1276421554501,86.8708
1276421614501,87.3637
1276421674501,87.0903
1276421734501,86.6262
1276421794501,87.0392
1276421854501,87.0563
1276421914501,86.5788
1276421974501,87.0424
1276422034501,86.8321
1276422094501,87.3090
1276422154501,87.2977
1276422214501,87.1419
1276422274501,87.2412
1276422334501,86.9759
1276422394501,87.3949
1276422454501,87.0100
1276422514501,87.3903
1276422574501,87.0870
1276422634501,86.8547
1276422694501,87.1807
1276422754501,86.9678
1276422814501,86.8520
1276422874501,86.9533
1276422934501,87.3120
1276422994501,87.0766
1276423054501,87.4043
1276423114501,87.0980
1276423174501,86.9635
1276423234509,87.2589
1276423294509,87.0487
1276423354509,86.6543
1276423414509,87.4464
1276423474509,87.1077
1276423534509,87.3088
1276423594509,86.7574
1276423654509,86.7972
1276423714509,87.0194
1276423774509,87.1317
1276423834509,87.3910
1276423894509,86.9937
1276423954509,87.0038
1276424014509,87.0623
1276424074509,87.1968
1276424134509,87.0230
1276424194509,86.5245
1276424254509,87.3442
1276424314509,87.3781
1276424374509,86.6016
1276424434509,86.8695
1276424494509,87.0227
1276424554509,87.2584
1276424614509,86.8935
1276424674509,86.9886
1276424734509,87.0769
1276424794509,87.2197
1276424854509,87.0397
1276424914509,86.6910
1276424974509,86.8131
1276425034509,87.0141
1276425094509,86.9711
1276425154509,87.7436
1276425214509,87.6408
1276425274509,87.3847
1276425334509,87.2750
1276425394509,87.0775
1276425454509,86.8899
1276425514509,86.9083
1276425574509,86.5815
1276425634509,86.9549
1276425694509,87.0360
1276425754509,87.2729
1276425814509,87.1870
1276425874509,87.0965
1276425934509,87.3044
1276425994509,86.7020
1276426054509,86.9659
1276426114509,87.1477
1276426174509,87.1390
1276426234509,86.9872
1276426294509,87.3241
1276426354509,86.9850
1276426414509,86.9983
1276426474509,87.2155
1276426534509,87.0021
1276426594509,87.2167
1276426654509,87.2547
1276426714509,86.6964
1276426774509,86.7599
1276426834517,86.6799
1276426894517,87.1233
1276426954517,86.2885
1276427014517,87.0806
1276427074517,86.7676
1276427134517,86.7223
1276427194517,86.7206
1276427254517,86.9111
1276427314517,86.8743
1276427374517,87.0469
1276427434517,87.1758
1276427494517,86.8668
1276427554517,86.6906
1276427614517,86.9735
1276427674517,87.0027
1276427734517,86.7468
1276427794517,86.7657
1276427854517,86.9948
1276427914517,86.6330
1276427974517,86.7465
1276428034517,86.8010
1276428094517,86.6029
1276428154517,86.7359
1276428214517,87.0450
1276428274517,86.6167
1276428334517,86.8294
1276428394517,86.6035
1276428454517,86.4914
1276428514517,87.0646
1276428574517,86.7866
1276428634517,86.6853
1276428694517,87.2297
1276428754517,86.2185
1276428814517,86.7372
1276428874517,86.7777
1276428934517,87.1263
1276428994517,86.8621
1276429054517,86.6933
1276429114517,87.2314
1276429174517,86.6316
1276429234517,87.1139
1276429294517,86.4679
1276429354517,86.5711
1276429414517,86.8121
1276429474517,86.5975
1276429534517,86.4827
1276429594517,87.2344
1276429654517,86.7766
1276429714517,87.1468
1276429774517,89.3052
1276429834517,86.9225
1276429894517,87.1920
1276429954517,86.4013
1276430014517,86.8129
1276430074517,87.3809
1276430134517,87.1545
1276430194517,87.0113
1276430254517,87.4079
1276430314517,86.9464
1276430374517,86.6260
1276431574528,87.2163
1276431634528,87.3849
1276431694528,87.1103
1276431754528,86.8384
1276431814528,86.7825
1276431874528,87.2215
1276431934528,86.7056
1276431994528,87.0639
1276432054528,87.0274
1276432114528,87.0852
1276432174528,87.3475
1276432234528,86.9763
1276432294528,87.6812
1276432354528,86.9824
1276432414528,87.0342
1276432474528,87.1402
1276432534528,87.5443
1276432594528,87.5034
1276432654528,87.4226
1276432714528,87.4346
1276432774528,86.9397
1276432834528,87.2482
1276432894528,87.2928
1276432954528,86.9531
1276433014528,87.3903
1276433074528,87.2184
1276433134528,87.7588
1276433194528,87.4136
1276433254528,87.2196
1276433314528,87.3312
1276433374528,87.5131
1276433434528,87.7232
1276433494528,87.2632
1276433554528,87.1668
1276433614528,87.2394
1276433674528,87.3072
1276433734528,87.0647
1276433794528,87.4047
1276433854528,87.3130
1276433914528,87.6507
1276433974528,87.5470
1276434034534,87.2418
1276434094534,87.3003
1276434154534,87.0624
1276434214534,87.3055
1276434274534,87.4608
1276434334534,86.9769
1276434394534,87.7260
1276434454534,87.5131
1276434514534,87.2522
1276434574534,87.6282
1276434634534,87.1555
1276434694534,87.2539
1276434754534,87.7051
1276434814534,87.2903
1276434874534,87.4022
1276434934534,87.3899
1276434994534,87.9400
1276435054534,87.2551
1276435114534,87.3562
1276435174534,87.7484
1276435234534,87.2118
1276435294534,87.7017
1276435354534,87.6875
1276435414534,87.6183
1276435474534,87.3418
1276435534534,86.9359
1276435594534,87.5319
1276435654534,87.3970
1276435714534,87.3855
1276435774534,87.5768
1276435834534,87.5798
1276435894534,87.4708
1276435954534,86.8772
1276436014534,87.2413
1276436074534,87.2016
1276436134534,87.4615
1276436194534,87.6611
1276436254534,87.4186
1276436314534,87.1979
1276436374534,87.3931
1276436434534,86.9876
1276436494534,86.8603
1276436554534,87.1085
1276436614534,87.4665
1276436674534,87.5774
1276436734534,87.5450
1276436794534,87.4693
1276436854534,87.5802
1276436914534,87.4169
1276436974534,87.4107
1276437034534,87.4399
1276437094534,87.2487
1276437154534,87.3256
1276437214534,87.6635
1276437274534,87.2060
1276437334534,87.0098
1276437394534,87.2490
1276437454534,86.9390
1276437514534,87.4822
1276437574534,86.9096
1276437634542,87.5365
1276437694542,87.1998
1276437754542,87.3201
1276437814542,87.0651
1276437874542,87.0024
1276437934542,87.3506
1276437994542,86.9351
1276438054542,87.3376
1276438114542,86.9697
1276438174542,87.2270
1276438234542,87.2872
1276438294542,87.8413
1276438354542,87.3112
1276438414542,87.3581
1276438474542,86.8465
1276438534542,87.1965
1276438594542,87.0200
1276438654542,87.1520
1276438714542,86.9520
1276438774542,87.1243
1276438834542,87.2799
1276438894542,86.8652
1276438954542,87.0728
1276439014542,87.1309
1276439074542,87.5152
1276439134542,86.7922
1276439194542,86.5975
1276439254542,87.0012
1276439314542,87.0995
1276439374542,86.5724
1276439434542,87.2711
1276439494542,87.0334
1276439554542,86.9779
1276439614542,87.2882
1276439674542,86.5939
1276439734542,87.2031
1276439794542,86.8784
1276439854542,86.8574
1276439914542,86.4365
1276439974542,86.4990
1276440034542,86.8524
1276440094542,86.8825
1276440154542,86.6703
1276440214542,86.6478
1276440274542,86.3364
1276440334542,86.5125
1276440394542,86.6268
1276440454542,86.9517
1276440514542,86.5350
1276440574542,86.6326
1276440634542,86.5445
1276440694542,86.8652
1276440754542,86.7720
1276440814542,86.7773
1276440874542,86.6614
1276440934542,86.7581
1276440994542,86.4688
1276441054542,86.4329
1276441114542,86.9189
1276441174542,85.9841
1276441234551,86.5182
1276441294551,86.5760
1276441354551,86.5230
1276441414551,86.2899
1276441474551,86.3749
1276441534551,86.6538
1276441594551,86.7513
1276441654551,86.5577
1276441714551,86.7852
1276441774551,86.6960
1276441834551,86.7002
1276441894551,86.7624
1276441954551,86.6307
1276442014551,86.6561
1276442074551,86.3036
1276442134551,86.0996
1276442194551,86.5539
1276442254551,86.9532
1276442314551,86.7320
1276442374551,86.7356
1276442434551,86.8507
1276442494551,86.6804
1276442554551,86.6690
1276442614551,86.7896
1276442674551,86.5895
1276442734551,86.3143
1276442794551,86.5129
1276442854551,86.5018
1276442914551,86.6042
1276442974551,86.5507
1276443034551,86.8478
1276443094551,86.5649
1276443154551,86.6055
1276443214551,86.1928
1276443274551,86.4593
1276443334551,86.4245
1276443394551,86.4307
1276443454551,86.7982
1276443514551,86.0682
1276443574551,86.3988
1276443634551,86.0470
1276443694551,86.3454
1276443754551,85.9859
1276443814551,86.5042
1276443874551,87.1065
1276443934551,86.4670
1276443994551,85.9583
1276444054551,86.7959
1276444114551,86.9382
1276444174551,86.7440
1276444234551,86.7106
1276444294551,86.4680
1276444354551,86.5853
1276444414551,86.9924
1276444474551,86.7531
1276444534551,86.8904
1276444594551,87.0400
1276444654551,86.6199
1276444714551,86.2645
1276444774551,86.8995
1276444834559,86.5832
1276444894559,86.7018
1276444954559,86.3067
1276445014559,86.4782
1276445074559,87.0377
1276445134559,87.0041
1276445194559,86.4134
1276445254559,87.3411
1276445314559,86.4048
1276445374559,86.5836
1276445434559,86.9678
1276445494559,86.4026
1276445554559,86.7748
1276445614559,86.9140
1276445674559,86.6411
1276445734559,86.7016
1276445794559,86.9361
1276445854559,86.6732
1276445914559,86.6727
1276445974559,87.0023
1276446034559,87.0898
1276446094559,86.7486
1276446154559,86.6679
1276446214559,86.4982
1276446274559,86.9074
1276446334559,86.8458
1276446394559,86.6871
1276446454559,86.1757
1276446514559,86.4626
1276446574559,86.5646
1276446634559,86.1562
1276446694559,86.9851
1276446754559,86.3278
1276446814559,86.8013
1276446874559,87.1053
1276446934559,86.4485
1276446994559,87.0151
1276447054559,87.0177
1276447114559,86.6696
1276447174559,86.7412
1276447234559,86.7510
1276447294559,86.8289
1276447354559,86.2336
1276447414559,86.9174
1276447474559,86.7371
1276447534559,86.7959
1276447594559,87.2922
1276447654559,86.6772
1276447714559,86.8909
1276447774559,86.7412
1276447834559,86.4802
1276447894559,86.7812
1276447954559,86.8745
1276448014559,86.8324
1276448074559,87.1246
1276448134559,86.7664
1276448194559,86.9524
1276448254559,87.1912
1276448314559,86.7977
1276448374559,87.0609
1276448434568,86.2880
1276448494568,87.0115
1276448554568,86.6515
1276448614568,86.5712
1276448674568,86.5850
1276448734568,87.0367
1276448794568,86.4763
1276448854568,87.4093
1276448914568,87.1281
1276448974568,87.2116
1276449034568,86.9829
1276449094568,87.0227
1276449154568,87.0242
1276449214568,86.7037
1276449274568,86.9069
1276449334568,87.0997
1276449394568,87.1730
1276449454568,87.1157
1276449514568,87.1456
1276449574568,86.7962
1276449634568,86.8752
1276449694568,86.7994
1276449754568,87.1049
1276449814568,87.5392
1276449874568,87.2827
1276449934568,87.1057
1276449994568,87.0565
1276450054568,86.9171
1276450114568,87.0312
1276450174568,87.1044
1276450234568,87.2813
1276450294568,87.1153
1276450354568,87.0116
1276450414568,87.0651
1276450474568,87.2496
1276450534568,87.3359
1276450594568,86.9679
1276450654568,87.5015
1276450714568,87.1818
1276450774568,87.0955
1276450834568,87.2447
1276450894568,87.4304
1276450954568,87.1300
1276451014568,87.2608
1276451074568,86.8348
1276451134568,87.1370
1276451194568,87.2628
1276451254568,87.2089
1276451314568,87.4092
1276451374568,87.1599
1276451434568,86.8835
1276451494568,87.0970
1276451554568,87.2691
1276451614568,87.0626
1276451674568,87.6024
1276451734568,87.7961
1276451794568,87.3083
1276451854568,87.2789
1276451914568,87.5008
1276451974568,87.4633
1276452034577,87.4319
1276452094577,87.7809
1276452154577,87.6463
1276452214577,86.8390
1276452274577,87.3130
1276452334577,87.6568
1276452394577,87.3721
1276452454577,87.6207
1276452514577,87.5148
1276452574578,87.1928
1276452634578,87.3296
1276452694578,87.4856
1276452754578,87.5497
1276452814577,87.9874
1276452874577,87.9372
1276452934577,87.2275
1276452994577,87.3055
1276453054577,87.5755
1276453114577,87.4523
1276453174577,87.7672
1276453234577,87.4278
1276453294577,88.0630
1276453354577,87.2873
1276453414577,87.4284
1276453474577,87.6688
1276453534577,87.0631
1276453594577,87.7368
1276453654577,87.5039
1276453714577,86.9177